HELLAS-SAT 3 (42814 NORAD) Tracking and Keplerian Element Data

This shows tracking and keplerian element data for the satellite.

Feedback or suggestion? Click here.




ElementValue
Catalog42814
NameHELLAS-SAT 3
Epoch Orbit1074
Epoch Day154.27304972
Epoch Year2020
RAAN21.8858
Inclination0.0677
Eccentricity0.0004868
Argument of Perigee26.6614
Mean Anonmoly339.9525
Mean Motion1.00275706
Decay Rate1.49E-06
L11 42814U 17040A 20154.27304972 .00000149 00000-0 00000+0 0 9990
L22 42814 0.0677 21.8858 0004868 26.6614 339.9525 1.00275706 10740

Live tracking and technical data element details for HELLAS-SAT 3 (NORAD 42814). HELLAS-SAT 3 can be tracked NOW for your location showing map with azimuth and elevation plus other details from your city location.

Track the satellite on the map from your city or location and see movement details for azimuth, elevation, latitude, longitude, range, height, and movement on the map or in text.







IsCatalogInMostPopularTable: catalog: 42814, numindb: 401
Update: records affected: 1



GetName: 42814 HELLAS-SAT 3

Hit Count: updated at: Thu, 04 Jun 2020 08:33:46 GMT